• In Portugal
  • List of Countries
  • For 7 days
  • Water Temperature
  • Satellite Maps
  • Weather Map
  • Weather Widgets
  • user-avatar
    Login

    Hourly Weather Asadabad

    Today, 20 January, Saturday

    Time Temperature Precipitation Wind Pressure Humidity
    00:00 +5°C° 0 mm 4 mps 659 mmHg 23%
    01:00 +5°C° 0 mm 4 mps 659 mmHg 22%
    02:00 +5°C° 0 mm 4 mps 659 mmHg 22%
    03:00 +5°C° 0 mm 4 mps 658 mmHg 21%
    04:00 +5°C° 0 mm 4 mps 658 mmHg 20%
    05:00 +4°C° 0 mm 3 mps 657 mmHg 21%
    06:00 +4°C° 0 mm 3 mps 657 mmHg 20%
    07:00 +5°C° 0 mm 3 mps 657 mmHg 19%
    08:00 +5°C° 0 mm 4 mps 657 mmHg 19%
    09:00 +9°C° 0 mm 3 mps 658 mmHg 17%
    10:00 +13°C° 0 mm 2 mps 658 mmHg 15%
    11:00 +16°C° 0 mm 1 mps 659 mmHg 13%
    12:00 +18°C° 0 mm 1 mps 659 mmHg 13%
    13:00 +19°C° 0 mm 1 mps 659 mmHg 12%
    14:00 +19°C° 0 mm 1 mps 658 mmHg 12%
    15:00 +18°C° 0 mm 1 mps 658 mmHg 15%
    16:00 +15°C° 0 mm 1 mps 657 mmHg 18%
    17:00 +13°C° 0 mm 1 mps 657 mmHg 20%
    18:00 +12°C° 0 mm 1 mps 657 mmHg 19%
    19:00 +10°C° 0 mm 2 mps 657 mmHg 19%
    20:00 +9°C° 0 mm 3 mps 657 mmHg 19%
    21:00 +9°C° 0 mm 3 mps 657 mmHg 18%
    22:00 +9°C° 0 mm 3 mps 657 mmHg 18%
    23:00 +8°C° 0 mm 3 mps 657 mmHg 18%

    Tomorrow, 21 January, Sunday

    Time Temperature Precipitation Wind Pressure Humidity
    00:00 +8°C° 0 mm 3 mps 656 mmHg 17%
    01:00 +8°C° 0 mm 3 mps 656 mmHg 16%
    02:00 +8°C° 0 mm 3 mps 656 mmHg 16%
    03:00 +7°C° 0 mm 3 mps 656 mmHg 15%
    04:00 +7°C° 0 mm 3 mps 656 mmHg 15%
    05:00 +7°C° 0 mm 3 mps 655 mmHg 14%
    06:00 +7°C° 0 mm 3 mps 655 mmHg 15%
    07:00 +7°C° 0 mm 3 mps 656 mmHg 15%
    08:00 +7°C° 0 mm 3 mps 656 mmHg 15%
    09:00 +10°C° 0 mm 3 mps 657 mmHg 14%
    10:00 +14°C° 0 mm 2 mps 657 mmHg 12%
    11:00 +17°C° 0 mm 2 mps 658 mmHg 11%
    12:00 +18°C° 0 mm 2 mps 658 mmHg 11%
    13:00 +18°C° 0 mm 2 mps 657 mmHg 11%
    14:00 +19°C° 0 mm 2 mps 657 mmHg 11%
    15:00 +18°C° 0 mm 1 mps 657 mmHg 13%
    16:00 +16°C° 0 mm 1 mps 657 mmHg 16%
    17:00 +14°C° 0 mm 1 mps 656 mmHg 19%
    18:00 +13°C° 0 mm 2 mps 657 mmHg 19%
    19:00 +10°C° 0 mm 2 mps 657 mmHg 20%
    20:00 +9°C° 0 mm 3 mps 657 mmHg 20%
    21:00 +8°C° 0 mm 3 mps 657 mmHg 20%
    22:00 +8°C° 0 mm 3 mps 657 mmHg 19%
    23:00 +7°C° 0 mm 3 mps 657 mmHg 19%

    Day after tomorrow, 22 January, Monday

    Time Temperature Precipitation Wind Pressure Humidity
    00:00 +7°C° 0 mm 3 mps 657 mmHg 19%
    01:00 +7°C° 0 mm 3 mps 656 mmHg 18%
    02:00 +7°C° 0 mm 3 mps 656 mmHg 18%
    03:00 +5°C° 0 mm 3 mps 656 mmHg 18%
    04:00 +5°C° 0 mm 3 mps 656 mmHg 17%
    05:00 +5°C° 0 mm 3 mps 655 mmHg 17%
    06:00 +5°C° 0 mm 3 mps 655 mmHg 17%
    07:00 +5°C° 0 mm 3 mps 656 mmHg 17%
    08:00 +5°C° 0 mm 3 mps 656 mmHg 17%
    09:00 +9°C° 0 mm 3 mps 656 mmHg 15%
    10:00 +13°C° 0 mm 2 mps 657 mmHg 14%
    11:00 +15°C° 0 mm 2 mps 657 mmHg 12%
    12:00 +16°C° 0 mm 2 mps 657 mmHg 12%
    13:00 +16°C° 0 mm 2 mps 656 mmHg 12%
    14:00 +17°C° 0 mm 2 mps 656 mmHg 11%
    15:00 +16°C° 0 mm 2 mps 656 mmHg 14%
    16:00 +15°C° 0 mm 1 mps 655 mmHg 17%
    17:00 +14°C° 0 mm 1 mps 655 mmHg 19%
    18:00 +12°C° 0 mm 2 mps 655 mmHg 20%
    19:00 +9°C° 0 mm 2 mps 655 mmHg 20%
    20:00 +8°C° 0 mm 3 mps 656 mmHg 21%
    21:00 +7°C° 0 mm 3 mps 656 mmHg 21%
    22:00 +7°C° 0 mm 3 mps 655 mmHg 21%
    23:00 +5°C° 0 mm 3 mps 655 mmHg 20%

    23 January, Tuesday

    Time Temperature Precipitation Wind Pressure Humidity
    00:00 +5°C° 0 mm 3 mps 655 mmHg 20%
    01:00 +5°C° 0 mm 3 mps 655 mmHg 19%
    02:00 +4°C° 0 mm 3 mps 655 mmHg 19%
    03:00 +4°C° 0 mm 3 mps 655 mmHg 19%
    04:00 +4°C° 0 mm 3 mps 655 mmHg 18%
    05:00 +4°C° 0 mm 3 mps 654 mmHg 18%
    06:00 +4°C° 0 mm 3 mps 655 mmHg 18%
    07:00 +4°C° 0 mm 3 mps 655 mmHg 18%
    08:00 +4°C° 0 mm 3 mps 656 mmHg 18%
    09:00 +7°C° 0 mm 3 mps 656 mmHg 16%
    10:00 +9°C° 0 mm 2 mps 656 mmHg 14%
    11:00 +13°C° 0 mm 2 mps 656 mmHg 12%
    12:00 +13°C° 0 mm 2 mps 656 mmHg 13%
    13:00 +14°C° 0 mm 2 mps 656 mmHg 13%
    14:00 +14°C° 0 mm 2 mps 655 mmHg 13%
    15:00 +13°C° 0 mm 2 mps 655 mmHg 16%
    16:00 +13°C° 0 mm 2 mps 655 mmHg 19%
    17:00 +12°C° 0 mm 1 mps 654 mmHg 21%
    18:00 +9°C° 0 mm 2 mps 655 mmHg 22%
    19:00 +8°C° 0 mm 2 mps 655 mmHg 23%
    20:00 +7°C° 0 mm 3 mps 655 mmHg 23%
    21:00 +5°C° 0 mm 3 mps 655 mmHg 24%
    22:00 +5°C° 0 mm 3 mps 655 mmHg 24%
    23:00 +4°C° 0 mm 3 mps 655 mmHg 24%

    24 January, Wednesday

    Time Temperature Precipitation Wind Pressure Humidity
    00:00 +4°C° 0 mm 3 mps 655 mmHg 24%
    01:00 +4°C° 0 mm 3 mps 654 mmHg 24%
    02:00 +3°C° 0 mm 3 mps 654 mmHg 23%
    03:00 +3°C° 0 mm 3 mps 654 mmHg 23%
    04:00 +3°C° 0 mm 3 mps 653 mmHg 22%
    05:00 +3°C° 0 mm 3 mps 653 mmHg 21%
    06:00 +3°C° 0 mm 3 mps 654 mmHg 21%
    07:00 +3°C° 0 mm 3 mps 654 mmHg 20%
    08:00 +4°C° 0 mm 2 mps 654 mmHg 19%
    09:00 +7°C° 0 mm 2 mps 655 mmHg 17%
    10:00 +10°C° 0 mm 1 mps 655 mmHg 15%
    11:00 +13°C° 0 mm 1 mps 656 mmHg 13%
    12:00 +13°C° 0 mm 1 mps 655 mmHg 13%
    13:00 +14°C° 0 mm 1 mps 655 mmHg 13%
    14:00 +14°C° 0 mm 2 mps 655 mmHg 13%
    15:00 +13°C° 0 mm 1 mps 655 mmHg 15%
    16:00 +12°C° 0 mm 1 mps 655 mmHg 18%
    17:00 +12°C° 0 mm 1 mps 655 mmHg 21%
    18:00 +10°C° 0 mm 1 mps 655 mmHg 22%
    19:00 +9°C° 0 mm 1 mps 655 mmHg 23%
    20:00 +7°C° 0 mm 1 mps 655 mmHg 23%
    21:00 +6°C° 0 mm 2 mps 655 mmHg 23%
    22:00 +5°C° 0 mm 2 mps 655 mmHg 23%
    23:00 +5°C° 0 mm 2 mps 655 mmHg 23%

    25 January, Thursday

    Time Temperature Precipitation Wind Pressure Humidity
    00:00 +5°C° 0 mm 2 mps 655 mmHg 23%
    01:00 +4°C° 0 mm 2 mps 655 mmHg 23%
    02:00 +4°C° 0 mm 2 mps 655 mmHg 23%
    03:00 +4°C° 0 mm 2 mps 655 mmHg 23%
    04:00 +4°C° 0 mm 2 mps 654 mmHg 23%
    05:00 +2°C° 0 mm 3 mps 654 mmHg 22%
    06:00 +3°C° 0 mm 3 mps 655 mmHg 22%
    07:00 +3°C° 0 mm 3 mps 655 mmHg 22%
    08:00 +3°C° 0 mm 3 mps 655 mmHg 22%
    09:00 +6°C° 0 mm 2 mps 656 mmHg 20%
    10:00 +9°C° 0 mm 2 mps 656 mmHg 18%
    11:00 +12°C° 0 mm 1 mps 656 mmHg 16%
    12:00 +13°C° 0 mm 1 mps 656 mmHg 16%
    13:00 +13°C° 0 mm 2 mps 655 mmHg 15%
    14:00 +14°C° 0 mm 2 mps 655 mmHg 15%
    15:00 +13°C° 0 mm 2 mps 655 mmHg 18%
    16:00 +13°C° 0 mm 1 mps 655 mmHg 20%
    17:00 +12°C° 0 mm 1 mps 655 mmHg 23%
    18:00 +9°C° 0 mm 2 mps 655 mmHg 24%
    19:00 +8°C° 0 mm 2 mps 656 mmHg 25%
    20:00 +6°C° 0 mm 2 mps 656 mmHg 26%
    21:00 +6°C° 0 mm 2 mps 656 mmHg 26%
    22:00 +4°C° 0 mm 3 mps 656 mmHg 27%
    23:00 +4°C° 0 mm 3 mps 656 mmHg 27%
    Show more